Terminal Aerodrome Forecast
Issued by NWS

Current Version | Previous Version | Text Only | Print | Product List | Glossary Off
Versions: 1 2 3 4 5 6 7 8 9 10 11 12 13 14 15 16 17 18 19 20 21

000
FTUS41 KRLX 191900 AAA
TAFCKB
TAF AMD
KCKB 191934Z 1920/2018 25005KT P6SM OVC015
     FM200200 00000KT P6SM BKN025
     FM201200 00000KT P6SM BKN050=

USA.gov is the U.S. government's official web portal to all federal, state and local government web resources and services.